Regional Weather Roundup
Issued by NWS

Home | Current Version | Previous Version | Graphics & Text | Print | Product List | Glossary On
Versions: 1 2 3 4 5 6 7 8 9 10 11 12 13 14 15 16 17 18 19 20 21 22 23 24 25 26 27 28 29 30 31 32 33 34 35 36 37 38 39 40 41 42 43 44 45 46 47 48 49 50
000
ASUS43 KIND 020059
RWRIN

WEATHER ROUNDUP FOR INDIANA
NATIONAL WEATHER SERVICE INDIANAPOLIS IN
800 PM EST SUN MAR 01 2015

NOTE: "FAIR" INDICATES FEW OR NO CLOUDS BELOW 12,000 FEET WITH NO
SIGNIFICANT WEATHER AND/OR OBSTRUCTIONS TO VISIBILITY.

* - STATION DOES NOT REPORT WEATHER SUCH AS PRECIPITATION OR FOG.

+ - STATION NOT QUALITY CONTROLLED BY THE NATIONAL WEATHER SERVICE.
    USE DATA WITH CAUTION...ESPECIALLY DEWPOINT AND RELATIVE
    HUMIDITY OBSERVATIONS.

INZ001>003-010>013-019-020-020200-
NORTHWEST INDIANA

CITY           SKY/WX    TMP DP  RH WIND       PRES   REMARKS
GARY /AIRPORT/ PTCLDY    23  12  63 W12G23    30.31R WCI  12
MONTICELLO +   PTCLDY    18  17  93 W6        30.31R WCI  10
VALPARAISO     NOT AVBL

$$

LMZ046-743>745-020200-
SOUTHERN LAKE MICHIGAN

STATION/POSITION TIME  TEMP WIND        PRES
                       AIR  DIR/SP/G
                 (UTC) (F)  (DEG/KT/KT) (MB)
MICHIGAN CITY    0000   23  220/  9/ 11   N/A

$$

INZ004-005-014>016-021>024-020200-
NORTH CENTRAL INDIANA

CITY           SKY/WX    TMP DP  RH WIND       PRES   REMARKS
GOSHEN         MOCLDY    18  13  80 W7        30.26R WCI   9
SOUTH BEND     CLOUDY    23  17  78 SW9       30.27R WCI  13

$$

INZ006>009-017-018-025>027-020200-
NORTHEAST INDIANA

CITY           SKY/WX    TMP DP  RH WIND       PRES   REMARKS
ANGOLA *+      PTCLDY    14  12  92 CALM      30.23S
FORT WAYNE     MOCLDY    19  16  88 W9        30.27R WCI   8

$$

INZ028-029-035-036-043>045-051>053-020200-
WEST CENTRAL INDIANA

CITY           SKY/WX    TMP DP  RH WIND       PRES   REMARKS
CRAWFORDSVL +  CLOUDY    23  17  78 W7        30.32R WCI  15
GREENCASTLE +  CLOUDY    28  23  80 NW3       30.32R
LAFAYETTE      PTCLDY    20  17  88 W8        30.34R WCI  10
TERRE HAUTE    MOCLDY    26  21  81 NW7       30.35R WCI  18

$$

INZ030>032-037>040-046>048-054>057-064-065-020200-
CENTRAL INDIANA

CITY           SKY/WX    TMP DP  RH WIND       PRES   REMARKS
COLUMBUS       CLOUDY    32  28  86 W7        30.32R WCI  26
FRANKFORT +    MOCLDY    23  21  93 SW8       30.33R WCI  14
GREENWOOD *+   CLOUDY    28  23  80 W5        30.32R WCI  23
INDIANAPOLIS   CLOUDY    27  23  85 NW10      30.31R WCI  17
-EAGLE CREEK   CLOUDY    26  23  88 NW6       30.31R WCI  19
KOKOMO *+      PTCLDY    21  18  86 W9        30.30R WCI  11
MT COMFORT *+  CLOUDY    28  23  80 W10       30.31R WCI  19
SHELBYVILLE    CLOUDY    32  27  81 NW8       30.30R WCI  25

$$

INZ033-034-041-042-049-050-058-059-020200-
EAST CENTRAL INDIANA

CITY           SKY/WX    TMP DP  RH WIND       PRES   REMARKS
MUNCIE         CLOUDY    22  20  92 W5        30.29R WCI  16

$$

INZ060-061-067>069-081>083-085>088-020200-
SOUTHWEST INDIANA

CITY           SKY/WX    TMP DP  RH WIND       PRES   REMARKS
EVANSVILLE     CLOUDY    34  30  85 NW6       30.36R FOG     WCI  29
HUNTINGBURG *+ MOCLDY    34  28  80 NW6       30.34S WCI  29

$$

INZ062-063-066-070>080-084-089>092-020200-
SOUTH CENTRAL AND SOUTHEAST INDIANA

CITY           SKY/WX    TMP DP  RH WIND       PRES   REMARKS
BLOOMINGTON    CLOUDY    31  29  92 NW6       30.30R WCI  25
SEYMOUR +      CLOUDY    34  32  93 CALM      30.31R FOG

$$



USA.gov is the U.S. government's official web portal to all federal, state and local government web resources and services.